Weather in Kadom

Russia / Ryazan Oblast     54°33′29″N   42°28′10″E
temp.,
°C
wind,
m/s
gust,
m/s
humid.,
%
clouds,
%
prec.,
mm/h
press.,
hPa
HPBL,
m
6 august, fri
fri600:00+17se3765100 0.0 1016108
03:00+19sse3957100 0.0 1015205
06:00+18sse3568100 0.2 1016108
09:00+19sse387699 0.5 1016255
12:00+24sse694713 0.0 1015970
15:00+26s563968 0.0 10141163
18:00+25ese244993 0.0 1013144
21:00+22se6145793 0.0 1012408
7 august, sat
sat700:00+22sse6165193 0.0 1012523
03:00+20sse5155431 0.0 1012407
06:00+20sse4145275 0.0 1013409
09:00+21s41348100 0.0 1014472
12:00+30s68285 0.0 10131181
15:00+31sse45289 0.0 10131970
18:00+28se593835 0.0 1013606
21:00+22se4125798 0.0 1014238
8 august, sun
sun800:00+21se4125539 0.0 1015238
03:00+19se41159100 0.0 1015184
06:00+19se31057100 0.0 1016200
09:00+25sse5838100 0.0 1016419
12:00+30sse4529100 0.0 1015812
15:00+31sse4629100 0.0 10161298
18:00+28se2446100 0.0 101691
21:00+24se3650100 0.0 101797
9 august, mon
mon900:00+23sse2351100 0.0 101739
03:00+23ssw3646100 0.0 1018112
06:00+23wsw1250100 0.0 101823
09:00+24w1250100 0.0 1019107
12:00+29w2337100 0.0 1019616
15:00+31wnw2230100 0.0 10191392
18:00+29nnw2241100 0.0 101936
21:00+25ssw1147100 0.0 101913
10 august, tue
tue1000:00+23sw0048100 0.0 101911
03:00+21n2262100 0.3 101933
06:00+20ne3574100 0.2 101889
09:00+24ne4660100 0.2 1018346
12:00+29ene454498 0.0 1017825
15:00+31ene5634100 0.0 10162097
18:00+30ne5741100 0.0 1015543
21:00+21nnw71174100 0.1 1016261